Terug naar catalogus

STARLINK-34123

ActiefCommunicatieVLEO
NORAD 63891·PAYLOAD·🇺🇸 United States

Gelanceerd May 10, 2025 vanaf Cape Canaveral Space Force Station

Loading…

Volgende Passages (komende 24 uur)

TLE

VersSource: CelesTrak SupGP

Epoch: Sep 15, 2026, 03:13 UTC

1 63891C 25095B   26258.13451389 -.00014653  00000+0 -53082-3 0  2584
2 63891  43.0014 186.6942 0001212 273.6338 202.0851 15.27581215    11

Volg STARLINK-34123 in realtime met AllMySat

Download on the App Store